Weather Roundup
Issued by NWS

Home | Current Version | Previous Version | Graphics & Text | Print | Product List | Glossary Off
Versions: 1 2 3 4 5 6 7 8 9 10 11 12 13 14 15 16 17 18 19 20 21 22 23 24 25 26 27 28 29 30 31 32 33 34 35 36 37 38 39 40 41 42 43 44 45 46 47 48 49 50

000
NZUS93 KARX 171559
HRRWXR

CURRENT HOURLY OBSERVATIONS ACROSS
MUCH OF THE UPPER MISSISSIPPI VALLEY
NATIONAL WEATHER SERVICE LA CROSSE WI
1000 AM CST WED DEC 17 2014


...SOUTHEAST MINNESOTA...


CITY           SKY/WX    TMP DP  RH WIND       PRES   REMARKS
ROCHESTER      MIX PCPN  13   9  84 NW12      30.28R WCI  -1
ROCHESTER/MAYO CLOUDY    13   8  79 NW8       30.30R WCI   2
WINONA         MOSUNNY   19  12  73 NW12      30.32R WCI   7
AUSTIN         LGT SNOW  12   9  85 NW8       30.30R WCI   1
ALBERT LEA     MOSUNNY   12  10  92 NW5       30.30S WCI   4
DODGE CENTER   LGT SNOW  12  10  92 NW9       30.28R WCI   0
PRESTON        LGT SNOW  13   9  84 W9        30.28S WCI   1
OWATONNA       LGT SNOW  12   9  85 NW9       30.31R WCI   0
FARIBAULT      LGT SNOW  12   9  85 NW10      30.32S WCI  -1
$$

...ELSEWHERE IN MINNESOTA...


CITY           SKY/WX    TMP DP  RH WIND       PRES   REMARKS
MINNEAPOLIS    MOSUNNY   13   7  77 W9        30.33R WCI   1
INTNL FALLS    MOSUNNY   14   6  70 NE6       30.32R WCI   5
DULUTH         MOSUNNY   13   6  74 N10       30.22R WCI   0
RED WING       LGT SNOW  16   9  73 W6        30.32R WCI   7
REDWOOD FALLS  SUNNY     10   6  84 NW6       30.35R WCI   0
MANKATO        SUNNY     10   5  79 NW12      30.33R WCI  -4
WORTHINGTON    MOSUNNY   10   7  85 N8        30.31S WCI  -1
FAIRMONT       MOSUNNY   12   7  79 N8        30.33R WCI   1
$$

...SOUTHWEST WISCONSIN...


CITY           SKY/WX    TMP DP  RH WIND       PRES   REMARKS
LA CROSSE      CLOUDY    21  12  68 NW10      30.29S WCI  10
PRAIRIE DU CHI FLURRIES  20  12  73 W8        30.30S WCI  10
BOSCOBEL       CLOUDY    22  14  71 W7        30.30R WCI  13
LONE ROCK      NOT AVBL
PLATTEVILLE    CLOUDY    21  17  83 NW12      30.26S WCI  10
FORT MC COY    CLOUDY    20  13  73 W10G16    30.27S WCI   9
VIROQUA        CLOUDY    18  15  88 W8        30.24R WCI   8
WIS DELLS      NOT AVBL
$$

...ELSEWHERE IN WISCONSIN...


CITY           SKY/WX    TMP DP  RH WIND       PRES   REMARKS
MILWAUKEE      CLOUDY    26  16  65 W15       30.21R WCI  14
MADISON        FLURRIES  23  15  71 W8        30.24R WCI  14
GREEN BAY      CLOUDY    24  15  68 W18G24    30.18R WCI  10
EAU CLAIRE     NOT AVBL
BLACK RVR FLS  CLOUDY    20  13  74 NW6       30.26S WCI  12
MEDFORD        FLURRIES  15  10  80 N7        30.19R WCI   6
WAUSAU         CLOUDY    18   9  68 NW10      30.19R WCI   6
WIS RAPIDS     CLOUDY    21  13  71 NW10      30.23R WCI  10
MARSHFIELD     CLOUDY    20  13  74 NW12      30.20R WCI   8
RICE LAKE      FLURRIES  15   9  77 NW5       30.28R WCI   8
$$

...NORTHEAST IOWA...


CITY           SKY/WX    TMP DP  RH WIND       PRES   REMARKS
DECORAH        LGT SNOW  16  10  79 NW6G13    30.28R WCI   7
MASON CITY     SUNNY     14  10  84 NW12      30.33R WCI   0
CHARLES CITY   PTSUNNY   14  12  92 NW9       30.31S WCI   2
OELWEIN        FLURRIES  16  12  86 NW13      30.31R WCI   2
$$

...ELSEWHERE IN IOWA...


CITY           SKY/WX    TMP DP  RH WIND       PRES   REMARKS
DES MOINES     MOSUNNY   19  11  70 N8        30.36R WCI   9
IOWA CITY      MOSUNNY   21  14  74 NW8       30.36R WCI  11
FORT DODGE     SUNNY     16  10  79 NW7       30.35S WCI   6
$$

...NORTHERN ILLINOIS...


CITY           SKY/WX    TMP DP  RH WIND       PRES   REMARKS
CHICAGO-OHARE  CLOUDY    26  17  68 NW12      30.23R WCI  16
CHICAGO-MIDWAY CLOUDY    27  18  69 W12       30.25R WCI  17
MOLINE         CLOUDY    22  15  75 W12       30.33R WCI  10
ROCKFORD       CLOUDY    24  16  71 NW10      30.28R WCI  14
PEORIA         CLOUDY    23  16  74 W10       30.34R HAZE    WCI  12
$$

NOTE: "FAIR" INDICATES FEW OR NO CLOUDS BELOW 12,000 FEET WITH NO
SIGNIFICANT WEATHER AND/OR OBSTRUCTIONS TO VISIBILITY. WIND
SPEEDS ARE IN MILES-PER-HOUR.



USA.gov is the U.S. government's official web portal to all federal, state and local government web resources and services.